Wind_Speed
11 11 10 11 11 11 12 13 12 11 12 14 15 17 17 16 16 16 15 14 15 15 14 13 14 14 13 14 14 14 13 13 13 13 13 13 13 12 12 11 12 13 12 12
14 11 10 11 11 11 12 12 11 12 12 14 15 16 17 16 16 15 16 16 16 16 16 15 14 13 14 14 14 14 13 13 13 13 14 14 13 13 13 13 13 13 14 13
12 10 11 13 13 13 13 13 13 15 13 14 14 15 16 16 15 15 17 17 16 16 16 15 15 14 14 13 15 15 14 14 14 14 14 14 14 14 14 14 14 14 14 14
15 13 14 15 15 15 15 14 15 15 14 15 15 17 18 17 16 17 17 17 17 17 16 16 16 15 14 14 15 15 15 16 16 15 15 15 15 15 15 15 15 14 15 15
17 15 15 16 16 15 15 14 15 15 16 17 16 17 17 16 16 17 17 17 18 18 17 18 16 16 16 16 16 17 16 17 17 16 16 15 16 16 15 16 15 15 15 15
16 15 15 16 16 15 14 14 15 17 18 19 16 16 17 16 16 16 16 17 17 17 17 18 18 17 17 17 17 17 17 17 18 18 16 16 15 15 15 15 15 15 15 16
15 15 15 15 15 15 15 15 15 15 16 16 13 15 16 17 17 17 18 18 17 16 17 17 18 18 17 17 18 18 18 17 17 17 17 17 16 16 16 16 16 16 16 17
17 17 17 16 16 16 16 16 15 14 14 13 12 15 16 19 19 19 20 20 18 16 17 17 17 17 17 16 17 17 18 18 17 17 17 18 18 18 17 16 17 17 17 17
18 17 17 19 18 17 16 17 15 16 16 15 14 15 16 19 19 19 20 21 20 19 18 18 18 18 18 18 17 17 17 18 17 17 17 18 19 19 18 18 18 17 17 18
20 19 18 17 17 18 17 17 16 17 17 17 15 16 18 19 18 19 21 21 20 21 20 19 19 19 19 19 19 18 18 18 17 17 17 18 18 19 19 19 19 19 18 18
23 22 20 18 19 18 18 18 18 19 18 18 19 17 18 21 20 21 20 20 20 20 20 19 20 19 19 19 20 19 19 18 18 18 18 18 19 19 20 20 20 19 19 18
25 24 23 21 20 18 18 19 18 21 21 20 20 19 19 21 23 22 21 21 21 21 21 20 20 20 20 21 21 20 20 20 19 19 19 19 20 20 20 20 20 20 19 20
26 26 24 22 20 20 21 20 20 20 21 22 22 21 21 22 23 23 23 23 23 23 22 21 21 21 22 22 22 21 21 21 20 20 20 20 20 20 20 20 20 20 20 21
27 27 26 24 21 22 24 24 24 24 23 23 23 23 23 21 22 23 24 25 24 24 24 23 23 23 24 24 23 23 22 22 22 22 21 21 21 21 21 20 20 21 21 21
29 28 27 26 25 25 25 25 24 25 25 25 24 25 26 24 25 26 26 26 26 25 25 25 25 25 26 26 25 24 23 23 23 23 23 23 23 23 22 21 21 21 22 22
29 29 29 28 27 27 27 27 28 26 26 27 26 27 28 27 28 27 27 28 29 27 26 27 27 27 27 27 27 26 25 25 25 24 24 25 24 24 23 23 23 23 23 23
29 29 30 29 28 29 31 29 29 30 29 28 28 29 30 30 29 29 29 29 29 30 29 29 29 29 29 28 27 27 27 26 26 26 26 26 25 25 24 25 25 24 24 24
30 30 30 30 30 31 29 30 30 31 31 31 31 31 31 30 30 30 30 30 30 31 31 31 30 29 28 29 29 28 28 28 27 27 27 27 26 26 25 25 26 26 25 24
30 30 31 31 31 31 30 30 29 29 31 31 31 31 31 30 31 30 31 31 31 31 30 30 30 29 29 29 29 28 28 28 28 28 28 28 28 28 27 26 26 27 26 25
28 28 30 30 31 31 30 30 30 30 33 33 33 33 32 30 31 30 31 32 32 32 30 30 30 29 29 29 29 29 28 27 28 28 28 28 29 28 28 28 27 27 27 27
26 27 28 29 30 30 30 29 30 31 33 34 33 33 34 34 33 33 33 33 33 32 31 31 31 31 30 30 30 29 29 28 28 29 29 29 29 29 29 28 28 28 27 27
27 28 28 28 30 31 30 29 30 32 32 32 33 33 34 34 34 34 33 33 32 32 32 32 31 31 30 30 30 30 29 29 29 29 30 30 30 30 30 29 29 28 28 27
28 28 29 29 29 31 30 30 31 31 32 32 32 32 33 33 35 35 34 33 33 32 32 31 31 30 29 29 30 30 30 30 30 30 29 30 30 30 30 30 29 29 29 28
27 27 28 29 30 31 31 31 32 32 32 32 31 32 33 33 34 35 34 33 32 31 31 31 31 30 30 30 29 29 29 30 30 30 30 30 30 30 30 30 30 30 29 29
26 27 29 29 29 30 31 31 31 32 32 31 31 32 33 33 33 33 33 32 32 32 31 31 31 31 31 30 29 29 29 29 29 30 29 30 30 30 29 29 29 29 28 28
24 26 28 30 30 31 30 30 30 31 30 30 31 31 32 32 32 33 32 32 32 32 32 32 32 32 31 30 30 30 30 29 29 29 28 29 29 29 29 28 28 28 28 27
Wind_Direction
241 241 239 242 245 243 246 254 264 260 259 264 267 267 264 266 266 267 265 264 271 277 276 276 278 279 282 286 288 289 288 287 285 284 286 288 289 287 286 286 289 290 289 290
247 249 251 252 253 249 249 253 259 261 261 264 267 265 262 262 265 261 262 257 261 265 269 276 280 282 285 288 289 288 286 286 284 285 285 286 284 284 283 284 285 286 287 288
253 247 249 249 251 253 249 253 253 258 256 255 260 265 267 267 268 259 261 264 262 266 270 271 280 284 283 284 286 285 284 284 286 285 283 282 282 282 281 280 281 283 285 286
249 244 246 249 249 251 249 246 251 254 256 259 260 263 263 262 264 263 263 266 268 270 274 276 278 281 284 285 287 286 283 285 284 282 279 279 281 283 283 279 278 279 282 285
250 245 246 248 249 250 250 248 250 255 252 252 254 260 265 258 261 268 271 270 269 269 273 274 279 282 282 284 287 286 285 285 282 279 276 277 279 281 281 283 279 278 279 284
244 246 247 251 251 250 250 251 250 252 254 251 246 252 260 259 264 269 272 274 272 269 273 277 282 281 282 284 285 284 284 284 281 278 277 277 278 279 281 284 282 281 281 282
245 249 251 247 249 247 247 250 253 251 251 258 254 249 258 266 265 262 267 274 271 273 276 280 281 283 283 283 284 283 281 281 279 277 278 276 274 276 279 284 285 282 283 283
244 243 247 249 246 248 250 250 253 259 263 268 257 253 262 268 268 265 264 270 275 272 275 280 283 286 288 287 284 281 279 279 279 277 276 275 273 275 277 281 283 282 281 283
249 249 247 253 254 249 247 248 249 255 260 260 256 259 263 268 263 269 270 269 271 270 272 275 279 281 284 283 282 280 281 281 276 276 274 272 272 273 275 277 278 280 281 281
248 250 248 248 252 249 249 248 242 245 254 257 259 261 261 269 264 269 271 272 273 271 269 272 277 280 282 282 283 282 282 281 278 276 275 272 271 272 275 275 276 277 278 280
243 246 245 245 250 251 245 243 241 242 246 257 260 256 260 270 271 270 270 268 269 271 272 274 277 279 280 281 281 279 280 278 276 275 275 274 272 272 274 277 276 275 274 276
243 246 244 241 243 250 248 245 244 243 246 250 256 259 257 261 263 264 264 265 266 271 275 275 275 277 278 277 277 277 279 276 273 273 275 277 276 274 275 277 277 274 273 273
246 248 246 242 241 242 244 240 241 245 250 253 256 263 262 259 258 261 266 268 271 272 274 273 275 277 276 274 275 276 277 276 274 273 274 276 277 276 276 276 276 276 276 273
244 246 245 242 241 241 244 243 241 242 246 251 254 259 264 266 262 264 265 268 271 272 273 273 275 275 275 274 274 276 274 274 274 273 273 275 276 276 275 275 273 273 275 274
243 245 246 242 240 243 247 245 247 249 245 247 253 256 258 263 265 265 263 266 268 269 272 274 274 273 273 274 273 273 272 273 274 273 273 275 274 275 274 275 274 273 273 274
248 246 247 245 241 243 246 247 246 248 249 248 249 253 257 259 261 263 265 267 269 272 273 273 273 274 274 274 272 270 272 272 272 272 274 274 273 274 274 275 274 273 272 272
251 250 247 247 246 247 246 248 249 247 247 249 251 255 256 259 261 263 266 269 270 272 272 272 273 273 272 272 271 270 272 272 273 272 272 273 272 272 273 274 273 272 272 270
251 251 251 250 249 251 252 251 252 251 250 250 252 254 255 257 261 263 266 268 271 272 273 274 272 271 271 271 271 271 271 271 272 272 272 272 271 270 271 273 273 271 271 271
251 252 252 251 251 254 252 252 252 251 251 252 254 255 257 261 263 264 267 268 271 272 274 275 274 273 272 271 271 270 270 270 271 271 271 271 271 269 269 271 272 271 270 270
254 252 251 250 250 252 253 255 256 256 254 252 255 258 259 262 263 266 267 268 271 273 273 273 273 271 271 269 270 269 268 269 270 271 270 269 269 268 268 269 270 270 270 269
256 254 252 251 252 252 252 255 257 256 258 257 256 259 261 263 265 267 268 269 270 272 273 273 272 271 271 269 269 269 270 270 269 269 269 269 269 268 269 269 270 270 269 268
254 255 255 254 253 253 254 256 257 258 258 260 259 260 263 264 265 267 267 268 268 271 273 273 271 271 272 270 269 269 271 273 272 272 271 269 268 269 269 268 269 270 271 271
254 254 253 254 256 256 258 258 259 259 259 261 261 262 264 264 266 267 268 268 268 270 271 271 271 271 271 270 269 268 269 272 273 273 271 270 269 269 268 267 268 269 269 269
257 257 256 255 257 258 257 258 261 263 264 264 264 263 263 264 264 265 267 267 267 268 269 270 270 270 269 270 271 269 268 269 270 271 270 270 270 269 268 267 268 269 270 269
257 257 258 257 258 261 259 260 261 263 265 265 264 265 266 265 264 265 266 266 265 266 267 268 269 269 268 269 270 271 271 270 271 269 269 270 268 268 269 269 269 269 269 270
260 260 260 259 259 259 260 262 264 265 265 265 264 264 266 266 264 264 264 265 265 265 266 267 268 268 269 270 271 272 272 273 273 272 271 270 268 268 269 269 269 268 269 268
Height
5851 5853 5854 5856 5858 5859 5860 5861 5862 5863 5864 5865 5865 5865 5864 5865 5864 5865 5866 5866 5866 5865 5864 5864 5863 5862 5863 5864 5864 5863 5863 5863 5863 5863 5863 5863 5863 5863 5863 5863 5863 5863 5863 5863
5849 5851 5852 5853 5855 5856 5857 5859 5859 5861 5862 5863 5862 5862 5861 5861 5861 5861 5862 5862 5862 5861 5861 5862 5861 5861 5861 5861 5861 5861 5860 5860 5860 5860 5860 5861 5861 5860 5861 5861 5861 5861 5860 5860
5846 5850 5851 5851 5852 5853 5854 5856 5857 5858 5859 5859 5860 5859 5858 5858 5858 5858 5859 5858 5858 5858 5859 5859 5858 5858 5858 5857 5858 5858 5857 5857 5857 5857 5857 5858 5858 5858 5858 5858 5858 5858 5858 5858
5844 5847 5847 5848 5849 5851 5852 5853 5854 5854 5854 5855 5857 5856 5855 5855 5855 5855 5855 5856 5856 5856 5856 5856 5855 5855 5855 5854 5854 5854 5854 5854 5854 5854 5855 5855 5855 5855 5855 5855 5855 5855 5855 5855
5840 5842 5843 5845 5847 5847 5848 5850 5850 5850 5851 5852 5852 5851 5850 5850 5851 5852 5852 5853 5853 5853 5852 5852 5851 5852 5852 5852 5852 5852 5851 5851 5851 5851 5851 5851 5852 5852 5852 5852 5852 5852 5852 5852
5837 5839 5840 5842 5843 5844 5845 5846 5846 5846 5846 5847 5847 5848 5848 5847 5849 5849 5849 5848 5848 5849 5849 5849 5849 5849 5849 5849 5849 5848 5848 5847 5847 5847 5848 5848 5848 5849 5849 5848 5848 5848 5848 5848
5833 5835 5836 5838 5839 5840 5841 5842 5842 5842 5842 5842 5843 5844 5846 5845 5846 5846 5846 5845 5844 5844 5845 5845 5845 5846 5845 5845 5845 5845 5844 5844 5843 5844 5844 5845 5845 5845 5846 5845 5845 5845 5845 5845
5829 5832 5833 5833 5835 5836 5837 5838 5839 5839 5840 5840 5841 5841 5843 5842 5841 5842 5842 5841 5841 5841 5842 5842 5842 5842 5842 5842 5842 5841 5840 5840 5840 5840 5841 5841 5841 5842 5842 5842 5842 5841 5841 5841
5825 5827 5829 5829 5830 5832 5833 5833 5836 5837 5837 5837 5838 5838 5838 5838 5837 5837 5838 5838 5838 5839 5839 5839 5839 5839 5838 5838 5837 5836 5836 5836 5836 5837 5837 5837 5837 5837 5838 5838 5837 5838 5837 5837
5820 5822 5824 5824 5826 5827 5829 5830 5832 5832 5832 5833 5834 5834 5834 5833 5832 5833 5834 5834 5834 5834 5835 5835 5835 5835 5835 5834 5833 5832 5832 5832 5832 5833 5833 5833 5833 5833 5833 5833 5833 5833 5833 5833
5814 5816 5819 5820 5820 5822 5824 5825 5826 5827 5828 5830 5830 5832 5830 5830 5829 5830 5829 5829 5829 5829 5830 5830 5830 5830 5830 5829 5829 5828 5829 5828 5828 5828 5828 5828 5828 5828 5828 5828 5828 5828 5828 5828
5808 5810 5811 5814 5816 5817 5818 5819 5821 5823 5823 5824 5824 5827 5824 5825 5825 5825 5824 5824 5825 5825 5825 5825 5825 5825 5825 5825 5824 5824 5824 5823 5823 5823 5824 5823 5823 5823 5823 5823 5823 5823 5823 5823
5802 5804 5806 5809 5812 5812 5812 5814 5816 5817 5819 5819 5819 5821 5818 5819 5819 5818 5818 5818 5819 5820 5820 5820 5820 5820 5820 5820 5819 5819 5819 5818 5818 5819 5819 5819 5818 5818 5818 5818 5818 5818 5818 5818
5796 5797 5800 5803 5804 5805 5806 5808 5810 5811 5812 5813 5814 5814 5812 5811 5812 5812 5813 5813 5813 5813 5814 5814 5814 5814 5814 5814 5814 5814 5813 5813 5813 5813 5813 5813 5813 5813 5812 5812 5812 5812 5812 5812
5787 5790 5792 5795 5797 5798 5800 5801 5803 5803 5804 5807 5807 5807 5806 5805 5806 5806 5806 5806 5807 5807 5808 5808 5807 5807 5808 5808 5808 5808 5807 5807 5807 5807 5807 5807 5807 5807 5806 5806 5806 5806 5806 5806
5780 5782 5784 5787 5789 5791 5792 5793 5796 5797 5798 5799 5800 5801 5800 5799 5799 5799 5800 5800 5800 5801 5801 5801 5801 5801 5801 5801 5801 5801 5801 5801 5801 5800 5800 5800 5800 5800 5800 5800 5800 5800 5800 5800
5772 5774 5776 5779 5781 5782 5784 5786 5788 5789 5790 5792 5793 5794 5793 5792 5792 5792 5793 5793 5793 5794 5794 5794 5793 5793 5793 5793 5793 5793 5793 5793 5793 5793 5793 5793 5793 5793 5793 5793 5793 5793 5793 5793
5765 5766 5768 5770 5773 5773 5779 5779 5780 5781 5781 5783 5784 5785 5784 5785 5784 5785 5785 5785 5785 5786 5786 5786 5785 5785 5785 5785 5785 5785 5785 5785 5785 5785 5785 5785 5785 5785 5785 5785 5785 5785 5785 5785
5757 5759 5760 5763 5764 5765 5769 5769 5771 5773 5773 5774 5776 5776 5776 5777 5777 5777 5777 5777 5778 5778 5778 5778 5777 5777 5777 5777 5777 5777 5777 5777 5777 5777 5777 5777 5777 5777 5778 5778 5777 5777 5777 5777
5748 5750 5752 5754 5756 5758 5761 5761 5762 5765 5764 5765 5766 5767 5767 5768 5769 5768 5769 5769 5769 5770 5770 5769 5769 5769 5769 5769 5769 5769 5769 5768 5769 5769 5768 5769 5769 5769 5770 5770 5770 5769 5769 5769
5740 5742 5744 5746 5747 5749 5751 5752 5754 5757 5756 5757 5758 5759 5760 5761 5761 5761 5761 5761 5761 5761 5761 5761 5761 5761 5761 5761 5761 5761 5760 5760 5760 5760 5760 5760 5760 5761 5761 5761 5761 5761 5761 5761
5734 5735 5737 5738 5740 5743 5743 5744 5746 5746 5746 5747 5749 5750 5751 5752 5751 5751 5751 5752 5752 5752 5752 5752 5752 5752 5752 5752 5752 5752 5752 5752 5752 5752 5751 5751 5752 5752 5752 5753 5753 5753 5752 5753
5727 5730 5731 5733 5734 5734 5735 5736 5737 5737 5738 5739 5740 5741 5742 5742 5742 5741 5742 5742 5743 5743 5743 5743 5743 5744 5744 5744 5743 5743 5744 5744 5744 5743 5743 5743 5743 5743 5743 5744 5744 5744 5744 5744
5720 5722 5723 5724 5725 5725 5727 5728 5728 5728 5729 5730 5730 5731 5732 5732 5732 5732 5733 5733 5734 5734 5734 5734 5734 5735 5735 5735 5734 5735 5735 5735 5735 5734 5734 5734 5734 5734 5735 5735 5735 5735 5735 5735
5713 5714 5715 5716 5717 5717 5718 5718 5719 5720 5720 5721 5721 5722 5722 5722 5723 5722 5724 5724 5724 5725 5725 5725 5725 5726 5726 5726 5726 5726 5726 5726 5725 5725 5725 5725 5725 5725 5726 5726 5726 5727 5727 5727
5706 5707 5707 5708 5709 5709 5710 5710 5711 5711 5712 5712 5712 5712 5713 5713 5713 5713 5714 5715 5715 5716 5716 5716 5716 5717 5717 5717 5717 5718 5717 5717 5716 5716 5716 5716 5716 5716 5717 5717 5718 5718 5718 5719